SWA2850 KLAS-KPSP

Flight info

Callsign SWA2850
Flight time 0h 33m
Altitude 19000
Route RADYR2 BLAQQ ZELMA RDBUL1
Aircraft B38M/M-SDE2E3GIJ4J7RWZ/LB1D1

Departure

Time 2026-05-06 14:08
Airport Harry Reid International Airport (KLAS)

Arrival

Time 2026-05-06 14:42
Airport Palm Springs International Airport (KPSP)
Time Latitude Longitude Altitude Speed Heading
2026-05-06 13:42 36.07988 -115.14706 2190 ft 0 kts 56°
2026-05-06 14:01 36.07983 -115.14714 2192 ft 0 kts 61°
2026-05-06 14:02 36.07978 -115.14726 2179 ft 2 kts 61°
2026-05-06 14:02 36.07970 -115.14745 2193 ft 3 kts 61°
2026-05-06 14:02 36.07964 -115.14767 2190 ft 2 kts 86°
2026-05-06 14:03 36.07964 -115.14770 2190 ft 0 kts 86°
2026-05-06 14:05 36.07963 -115.14768 2190 ft 1 kts 89°
2026-05-06 14:05 36.07958 -115.14755 2194 ft 2 kts 138°
2026-05-06 14:06 36.07928 -115.14744 2192 ft 8 kts 165°
2026-05-06 14:06 36.07858 -115.14725 2192 ft 11 kts 181°
2026-05-06 14:06 36.07792 -115.14693 2191 ft 10 kts 141°
2026-05-06 14:06 36.07737 -115.14658 2190 ft 0 kts 172°
2026-05-06 14:07 36.07735 -115.14658 2190 ft 2 kts 172°
2026-05-06 14:07 36.07682 -115.14650 2192 ft 13 kts 179°
2026-05-06 14:08 36.07639 -115.14775 2193 ft 27 kts 270°
2026-05-06 14:08 36.07638 -115.15312 2193 ft 102 kts 270°
2026-05-06 14:08 36.07630 -115.16496 2219 ft 168 kts 268°
2026-05-06 14:08 36.07638 -115.18031 2888 ft 186 kts 269°
2026-05-06 14:09 36.07659 -115.19626 3974 ft 184 kts 271°
2026-05-06 14:09 36.07609 -115.21221 4832 ft 190 kts 261°
2026-05-06 14:09 36.07337 -115.22888 5394 ft 205 kts 259°
2026-05-06 14:09 36.06996 -115.24512 5611 ft 186 kts 249°
2026-05-06 14:10 36.06206 -115.25802 5723 ft 197 kts 216°
2026-05-06 14:10 36.04928 -115.26607 5921 ft 214 kts 205°
2026-05-06 14:10 36.03488 -115.27341 6145 ft 232 kts 202°
2026-05-06 14:10 36.01943 -115.28084 6463 ft 249 kts 201°
2026-05-06 14:11 36.00283 -115.28846 7068 ft 264 kts 201°
2026-05-06 14:11 35.98475 -115.29608 7526 ft 281 kts 193°
2026-05-06 14:11 35.96532 -115.30081 7807 ft 289 kts 191°
2026-05-06 14:11 35.94547 -115.30551 7855 ft 291 kts 191°
2026-05-06 14:12 35.93223 -115.30870 7871 ft 292 kts 191°
2026-05-06 14:12 35.91237 -115.31353 7878 ft 291 kts 191°
2026-05-06 14:12 35.89234 -115.31844 7880 ft 292 kts 191°
2026-05-06 14:12 35.86588 -115.32493 7869 ft 292 kts 191°
2026-05-06 14:13 35.85266 -115.32818 7868 ft 292 kts 191°
2026-05-06 14:13 35.83255 -115.33312 7874 ft 292 kts 191°
2026-05-06 14:13 35.81282 -115.33796 7879 ft 292 kts 191°
2026-05-06 14:13 35.79301 -115.34284 8132 ft 292 kts 191°
2026-05-06 14:14 35.77293 -115.34776 8524 ft 294 kts 191°
2026-05-06 14:14 35.75273 -115.35271 8923 ft 296 kts 191°
2026-05-06 14:14 35.73237 -115.35770 9381 ft 299 kts 191°
2026-05-06 14:14 35.71184 -115.36272 9841 ft 302 kts 191°
2026-05-06 14:15 35.69117 -115.36778 10266 ft 304 kts 191°
2026-05-06 14:15 35.67050 -115.37284 10686 ft 307 kts 191°
2026-05-06 14:15 35.64949 -115.37798 11119 ft 309 kts 191°
2026-05-06 14:15 35.62839 -115.38314 11627 ft 312 kts 191°
2026-05-06 14:16 35.60687 -115.38776 12213 ft 314 kts 182°
2026-05-06 14:16 35.58494 -115.38657 12863 ft 317 kts 175°
2026-05-06 14:16 35.56275 -115.38471 13519 ft 321 kts 175°
2026-05-06 14:16 35.54052 -115.38300 14140 ft 325 kts 175°
2026-05-06 14:17 35.51786 -115.38131 14740 ft 328 kts 175°
2026-05-06 14:17 35.49487 -115.37963 15350 ft 332 kts 175°
2026-05-06 14:17 35.47162 -115.37794 16006 ft 336 kts 175°
2026-05-06 14:17 35.44800 -115.37623 16685 ft 341 kts 175°
2026-05-06 14:18 35.42410 -115.37454 17363 ft 346 kts 175°
2026-05-06 14:18 35.40020 -115.37286 18058 ft 350 kts 175°
2026-05-06 14:18 35.37577 -115.37115 18716 ft 354 kts 175°
2026-05-06 14:18 35.35071 -115.36939 19029 ft 369 kts 175°
2026-05-06 14:19 35.32437 -115.36754 19027 ft 387 kts 175°
2026-05-06 14:19 35.29678 -115.36561 19019 ft 405 kts 175°
2026-05-06 14:19 35.26798 -115.36359 19015 ft 422 kts 175°
2026-05-06 14:19 35.23812 -115.36150 19014 ft 437 kts 175°
2026-05-06 14:20 35.20783 -115.35938 19014 ft 444 kts 175°
2026-05-06 14:20 35.17680 -115.35722 19045 ft 447 kts 175°
2026-05-06 14:20 35.14575 -115.35505 19051 ft 447 kts 175°
2026-05-06 14:20 35.11462 -115.35288 19055 ft 448 kts 175°
2026-05-06 14:21 35.08351 -115.35071 19050 ft 448 kts 175°
2026-05-06 14:21 35.05224 -115.34853 19048 ft 448 kts 175°
2026-05-06 14:21 35.02152 -115.34639 19050 ft 448 kts 175°
2026-05-06 14:21 34.99033 -115.34422 19046 ft 448 kts 175°
2026-05-06 14:22 34.95911 -115.34205 19040 ft 448 kts 175°
2026-05-06 14:22 34.92797 -115.33989 19038 ft 448 kts 175°
2026-05-06 14:22 34.89685 -115.33772 19035 ft 448 kts 175°
2026-05-06 14:22 34.86563 -115.33556 19033 ft 448 kts 175°
2026-05-06 14:23 34.83442 -115.33340 19030 ft 448 kts 175°
2026-05-06 14:23 34.80366 -115.33130 19028 ft 448 kts 176°
2026-05-06 14:23 34.77226 -115.33460 19019 ft 450 kts 193°
2026-05-06 14:23 34.74304 -115.34704 19025 ft 451 kts 200°
2026-05-06 14:24 34.71356 -115.36032 19021 ft 451 kts 199°
2026-05-06 14:24 34.68407 -115.37335 19016 ft 452 kts 199°
2026-05-06 14:24 34.65485 -115.38616 19023 ft 452 kts 199°
2026-05-06 14:24 34.62481 -115.39931 19016 ft 452 kts 199°
2026-05-06 14:25 34.59554 -115.41211 19015 ft 452 kts 199°
2026-05-06 14:25 34.56598 -115.42501 19014 ft 452 kts 199°
2026-05-06 14:25 34.53637 -115.43794 19016 ft 452 kts 199°
2026-05-06 14:25 34.50673 -115.45087 19013 ft 451 kts 199°
2026-05-06 14:26 34.47708 -115.46378 19011 ft 451 kts 199°
2026-05-06 14:26 34.44786 -115.47651 19017 ft 451 kts 199°
2026-05-06 14:26 34.41820 -115.48941 19017 ft 451 kts 199°
2026-05-06 14:26 34.38860 -115.50228 19014 ft 451 kts 199°
2026-05-06 14:27 34.35891 -115.51518 18864 ft 450 kts 199°
2026-05-06 14:27 34.32994 -115.52927 18616 ft 448 kts 208°
2026-05-06 14:27 34.30526 -115.55127 18370 ft 446 kts 225°
2026-05-06 14:27 34.28295 -115.57746 18078 ft 445 kts 224°
2026-05-06 14:28 34.26050 -115.60310 17766 ft 443 kts 224°
2026-05-06 14:28 34.23795 -115.62861 17364 ft 440 kts 223°
2026-05-06 14:28 34.21569 -115.65370 16950 ft 437 kts 223°
2026-05-06 14:28 34.19352 -115.67864 16535 ft 433 kts 223°
2026-05-06 14:29 34.17145 -115.70344 16133 ft 430 kts 223°
2026-05-06 14:29 34.14979 -115.72778 15751 ft 428 kts 223°
2026-05-06 14:29 34.12822 -115.75198 15342 ft 424 kts 223°
2026-05-06 14:29 34.10575 -115.77557 14917 ft 421 kts 215°
2026-05-06 14:30 34.08165 -115.79492 14530 ft 418 kts 214°
2026-05-06 14:30 34.05753 -115.81436 14033 ft 415 kts 214°
2026-05-06 14:30 34.03360 -115.83376 13508 ft 411 kts 214°
2026-05-06 14:30 34.00986 -115.85301 12950 ft 408 kts 214°
2026-05-06 14:31 33.98642 -115.87202 12416 ft 404 kts 214°
2026-05-06 14:31 33.96358 -115.89055 11895 ft 401 kts 214°
2026-05-06 14:31 33.94050 -115.90926 11373 ft 390 kts 213°
2026-05-06 14:31 33.91839 -115.92717 10777 ft 376 kts 213°
2026-05-06 14:32 33.89695 -115.94453 10208 ft 364 kts 213°
2026-05-06 14:32 33.87723 -115.96277 9710 ft 351 kts 227°
2026-05-06 14:32 33.86389 -115.98620 9221 ft 337 kts 242°
2026-05-06 14:32 33.85209 -116.01024 8872 ft 321 kts 240°
2026-05-06 14:33 33.84078 -116.03263 8505 ft 308 kts 239°
2026-05-06 14:33 33.82991 -116.05399 8143 ft 296 kts 239°
2026-05-06 14:33 33.81936 -116.07464 8105 ft 282 kts 239°
2026-05-06 14:33 33.80934 -116.09419 8055 ft 267 kts 239°
2026-05-06 14:34 33.79975 -116.11286 8031 ft 255 kts 239°
2026-05-06 14:34 33.79050 -116.13092 7989 ft 253 kts 239°
2026-05-06 14:34 33.78150 -116.14879 7911 ft 250 kts 240°
2026-05-06 14:34 33.77251 -116.16693 7729 ft 251 kts 240°
2026-05-06 14:35 33.76362 -116.18496 7467 ft 251 kts 240°
2026-05-06 14:35 33.75563 -116.20075 7173 ft 251 kts 238°
2026-05-06 14:35 33.74611 -116.21843 6803 ft 251 kts 238°
2026-05-06 14:35 33.73710 -116.23615 6550 ft 246 kts 240°
2026-05-06 14:36 33.72832 -116.25374 6198 ft 245 kts 240°
2026-05-06 14:36 33.71972 -116.27115 5878 ft 240 kts 244°
2026-05-06 14:36 33.71318 -116.28934 5557 ft 233 kts 252°
2026-05-06 14:36 33.70944 -116.30769 5210 ft 227 kts 264°
2026-05-06 14:37 33.70925 -116.32671 4662 ft 223 kts 277°
2026-05-06 14:37 33.71191 -116.34436 4043 ft 222 kts 285°
2026-05-06 14:37 33.71556 -116.35775 3625 ft 219 kts 292°
2026-05-06 14:37 33.72148 -116.37243 3342 ft 205 kts 297°
2026-05-06 14:38 33.72771 -116.38706 3008 ft 194 kts 297°
2026-05-06 14:38 33.73373 -116.40106 2692 ft 186 kts 296°
2026-05-06 14:38 33.73930 -116.41489 2495 ft 185 kts 295°
2026-05-06 14:38 33.74629 -116.42803 2234 ft 181 kts 311°
2026-05-06 14:39 33.75492 -116.43804 1920 ft 166 kts 319°
2026-05-06 14:39 33.76311 -116.44685 1679 ft 150 kts 317°
2026-05-06 14:39 33.77093 -116.45446 1461 ft 145 kts 321°
2026-05-06 14:39 33.77887 -116.46202 1287 ft 145 kts 321°
2026-05-06 14:40 33.78412 -116.46688 1147 ft 145 kts 322°
2026-05-06 14:40 33.79081 -116.47285 984 ft 147 kts 323°
2026-05-06 14:40 33.79892 -116.48009 824 ft 144 kts 323°
2026-05-06 14:40 33.80693 -116.48726 674 ft 144 kts 323°
2026-05-06 14:41 33.81496 -116.49451 542 ft 147 kts 322°
2026-05-06 14:41 33.81768 -116.49697 489 ft 146 kts 323°
2026-05-06 14:41 33.82487 -116.50335 420 ft 133 kts 324°
2026-05-06 14:41 33.83108 -116.50890 438 ft 80 kts 323°
2026-05-06 14:42 33.83338 -116.51099 453 ft 9 kts 307°
2026-05-06 14:42 33.83284 -116.51192 454 ft 21 kts 190°
2026-05-06 14:42 33.83182 -116.51173 451 ft 16 kts 142°
2026-05-06 14:42 33.83082 -116.51082 447 ft 20 kts 143°
2026-05-06 14:43 33.82955 -116.50970 436 ft 24 kts 143°
2026-05-06 14:43 33.82819 -116.50838 431 ft 27 kts 144°
2026-05-06 14:43 33.82660 -116.50698 428 ft 29 kts 143°
2026-05-06 14:43 33.82500 -116.50555 425 ft 27 kts 144°
2026-05-06 14:44 33.82344 -116.50419 417 ft 17 kts 157°
2026-05-06 14:44 33.82264 -116.50491 422 ft 14 kts 238°
2026-05-06 14:44 33.82263 -116.50559 428 ft 4 kts 297°
2026-05-06 14:45 33.82266 -116.50566 420 ft 1 kts 297°
2026-05-06 14:45 33.82274 -116.50586 423 ft 0 kts 291°
2026-05-06 14:45 33.82274 -116.50588 423 ft 0 kts 292°